Regional Weather Roundup
Issued by NWS

Home | Current Version | Previous Version | Text Only | Print | Product List | Glossary On
Versions: 1 2 3 4 5 6 7 8 9 10 11 12 13 14 15 16 17 18 19 20 21 22 23 24 25 26 27 28 29 30 31 32 33 34 35 36 37 38 39 40 41 42 43 44 45 46 47 48 49 50
000
ASUS44 KBMX 200410
RWRAL

ALABAMA REGIONAL WEATHER ROUNDUP
NATIONAL WEATHER SERVICE BIRMINGHAM AL
1100 PM CDT TUE AUG 19 2014

NOTE: "FAIR" INDICATES FEW OR NO CLOUDS BELOW 12,000 FEET
WITH NO SIGNIFICANT WEATHER AND/OR OBSTRUCTIONS TO VISIBILITY.

THE REMARK "TC" DENOTES TEMPERATURE IN DEGREES CELSIUS.

ALZ001>011-014-016>018-020-200500-
NORTH ALABAMA

CITY           SKY/WX    TMP DP  RH WIND       PRES   REMARKS
MUSCLE SHOALS  CLEAR     75  71  87 CALM      29.95R
HUNTSVILLE     PTCLDY    76  73  91 S3        29.95R
DECATUR        CLEAR     75  73  93 S5        29.95R
HALEYVILLE     FAIR      76  72  87 CALM      29.99S
GADSDEN        MOCLDY    73  66  78 CALM      29.96S
$$

ALZ012-013-022-023-030>036-040>044-200500-
WEST CENTRAL ALABAMA

CITY           SKY/WX    TMP DP  RH WIND       PRES   REMARKS
TUSCALOOSA     CLOUDY    74  71  91 S5        29.97S
$$

ALZ015-024>027-033>036-040>044-200500-
CENTRAL ALABAMA

CITY           SKY/WX    TMP DP  RH WIND       PRES   REMARKS
BIRMINGHAM     MOCLDY    79  70  74 SW8       30.00R
MONTGOMERY     CLOUDY    74  71  91 CALM      29.99S
SHELBY CO ARPT MOCLDY    75  70  84 SW3       29.98F
MAXWELL AFB    CLOUDY    73  73 100 S2        29.98F
GREENVILLE     FAIR      73  71  93 S3        29.99F
$$

ALZ019-021-028-029-037-038-045>048-200500-
EAST CENTRAL ALABAMA

CITY           SKY/WX    TMP DP  RH WIND       PRES   REMARKS
ANNISTON       PTCLDY    76  73  91 SW5       29.98R
ALEXANDER CITY PTCLDY    76  71  85 CALM      30.01S
AUBURN         CLEAR     70  66  88 SW8       30.04S
$$

ALZ051>064-200500-
SOUTHWEST ALABAMA

CITY           SKY/WX    TMP DP  RH WIND       PRES   REMARKS
MOBILE         PTCLDY    80  69  69 VRB3      30.05R
BROOKLEY FIELD CLOUDY    77  73  87 E10       30.05R
EVERGREEN      LGT RAIN  73  69  87 S3        30.01F
$$

ALZ049-050-065>069-200500-
SOUTHEAST ALABAMA

CITY           SKY/WX    TMP DP  RH WIND       PRES   REMARKS
DOTHAN         CLOUDY    75  72  90 SW5       30.03
OZARK          CLOUDY    75  72  91 W6        29.98F
TROY           CLOUDY    72  69  90 SW3       30.01F
EUFAULA        FAIR      72  70  93 CALM      29.99R
$$


USA.gov is the U.S. government's official web portal to all federal, state and local government web resources and services.